Time,TemperatureF,DewpointF,PressureIn,WindDirection,WindDirectionDegrees,WindSpeedMPH,WindSpeedGustMPH,Humidity,HourlyPrecipIn,Conditions,Clouds,dailyrainin,SoftwareType,DateUTC
2013-06-08 00:00:00,84.5,39.5,29.80,WSW,247,2.4,2.5,19,-99.99,,,-99.99,tws,2013-06-08 07:00:00,
2013-06-08 00:10:00,83.7,40.0,29.81,North,0,1.3,1.9,20,-99.99,,,-99.99,tws,2013-06-08 07:10:00,
2013-06-08 00:20:00,82.9,39.7,29.82,NW,315,2.6,3.6,21,-99.99,,,-99.99,tws,2013-06-08 07:20:00,
2013-06-08 00:30:00,82.1,38.5,29.82,NW,315,3.1,3.7,20,-99.99,,,-99.99,tws,2013-06-08 07:30:00,
2013-06-08 00:40:00,81.5,38.5,29.82,NW,315,3.0,3.6,21,-99.99,,,-99.99,tws,2013-06-08 07:40:00,
2013-06-08 00:50:00,81.0,37.6,29.80,NW,315,2.1,2.7,20,-99.99,,,-99.99,tws,2013-06-08 07:50:00,
2013-06-08 01:00:00,80.6,38.5,29.80,NW,315,2.4,3.4,21,-99.99,,,-99.99,tws,2013-06-08 08:00:00,
2013-06-08 01:10:00,80.1,38.2,29.79,SW,225,1.1,1.7,21,-99.99,,,-99.99,tws,2013-06-08 08:10:00,
2013-06-08 01:20:00,79.8,37.5,29.80,SW,225,1.8,2.5,21,-99.99,,,-99.99,tws,2013-06-08 08:20:00,
2013-06-08 01:30:00,79.6,37.7,29.81,South,180,0.8,2.2,21,-99.99,,,-99.99,tws,2013-06-08 08:30:00,
2013-06-08 01:40:00,79.1,37.0,29.80,South,180,0.1,0.5,21,-99.99,,,-99.99,tws,2013-06-08 08:40:00,
2013-06-08 01:50:00,78.6,36.7,29.81,South,180,0.0,0.0,21,-99.99,,,-99.99,tws,2013-06-08 08:50:00,
2013-06-08 02:00:00,78.1,37.2,29.81,SW,225,0.2,1.8,22,-99.99,,,-99.99,tws,2013-06-08 09:00:00,
2013-06-08 02:10:00,77.6,36.6,29.81,South,180,1.9,2.9,22,-99.99,,,-99.99,tws,2013-06-08 09:10:00,
2013-06-08 02:20:00,77.4,35.8,29.81,South,180,4.0,4.5,21,-99.99,,,-99.99,tws,2013-06-08 09:20:00,
2013-06-08 02:30:00,78.2,35.9,29.82,SW,225,3.7,4.5,21,-99.99,,,-99.99,tws,2013-06-08 09:30:00,
2013-06-08 02:40:00,79.2,35.9,29.81,South,180,3.5,4.0,20,-99.99,,,-99.99,tws,2013-06-08 09:40:00,
2013-06-08 02:50:00,79.6,35.6,29.80,SW,225,3.8,4.5,20,-99.99,,,-99.99,tws,2013-06-08 09:50:00,
2013-06-08 03:00:00,79.7,36.0,29.80,SW,225,2.8,3.6,20,-99.99,,,-99.99,tws,2013-06-08 10:00:00,
2013-06-08 03:10:00,79.6,37.7,29.81,NW,315,2.2,2.9,21,-99.99,,,-99.99,tws,2013-06-08 10:10:00,
2013-06-08 03:20:00,78.7,37.9,29.81,NW,315,2.5,2.7,22,-99.99,,,-99.99,tws,2013-06-08 10:20:00,
2013-06-08 03:30:00,77.8,37.7,29.82,NW,315,3.5,5.7,23,-99.99,,,-99.99,tws,2013-06-08 10:30:00,
2013-06-08 03:40:00,77.0,37.0,29.82,NW,315,4.4,5.2,23,-99.99,,,-99.99,tws,2013-06-08 10:40:00,
2013-06-08 03:50:00,76.7,37.0,29.82,NW,315,3.7,4.2,23,-99.99,,,-99.99,tws,2013-06-08 10:50:00,
2013-06-08 04:00:00,76.3,37.0,29.82,WNW,292,3.4,3.7,23,-99.99,,,-99.99,tws,2013-06-08 11:00:00,
2013-06-08 04:10:00,75.9,36.9,29.82,West,270,2.9,3.5,23,-99.99,,,-99.99,tws,2013-06-08 11:10:00,
2013-06-08 04:20:00,75.5,37.0,29.83,NW,315,1.6,3.5,24,-99.99,,,-99.99,tws,2013-06-08 11:20:00,
2013-06-08 04:30:00,75.1,37.6,29.83,NW,315,1.7,3.0,25,-99.99,,,-99.99,tws,2013-06-08 11:30:00,
2013-06-08 04:40:00,74.8,37.3,29.83,West,270,2.9,3.8,25,-99.99,,,-99.99,tws,2013-06-08 11:40:00,
2013-06-08 04:50:00,74.5,36.6,29.83,West,270,1.7,2.3,24,-99.99,,,-99.99,tws,2013-06-08 11:50:00,
2013-06-08 05:00:00,74.4,37.0,29.82,WNW,292,1.0,2.6,25,-99.99,,,-99.99,tws,2013-06-08 12:00:00,
2013-06-08 05:10:00,74.0,37.3,29.84,West,270,2.2,2.8,25,-99.99,,,-99.99,tws,2013-06-08 12:10:00,
2013-06-08 05:20:00,73.6,38.0,29.83,NW,315,1.6,2.3,27,-99.99,,,-99.99,tws,2013-06-08 12:20:00,
2013-06-08 05:30:00,73.3,38.3,29.84,NW,315,0.4,2.4,27,-99.99,,,-99.99,tws,2013-06-08 12:30:00,
2013-06-08 05:40:00,73.1,38.1,29.84,NW,315,0.9,2.6,27,-99.99,,,-99.99,tws,2013-06-08 12:40:00,
2013-06-08 05:50:00,72.8,38.8,29.84,NW,315,2.9,3.7,28,-99.99,,,-99.99,tws,2013-06-08 12:50:00,
2013-06-08 06:00:00,72.7,39.2,29.84,NW,315,2.1,2.9,29,-99.99,,,-99.99,tws,2013-06-08 13:00:00,
2013-06-08 06:10:00,72.6,40.3,29.84,NW,315,3.2,3.7,30,-99.99,,,-99.99,tws,2013-06-08 13:10:00,
2013-06-08 06:20:00,72.7,40.6,29.85,WNW,292,2.1,2.7,30,-99.99,,,-99.99,tws,2013-06-08 13:20:00,
2013-06-08 06:30:00,72.8,41.5,29.86,West,270,2.3,2.8,31,-99.99,,,-99.99,tws,2013-06-08 13:30:00,
2013-06-08 06:40:00,73.0,42.9,29.85,West,270,1.1,1.7,33,-99.99,,,-99.99,tws,2013-06-08 13:40:00,
2013-06-08 06:50:00,73.4,43.2,29.87,ENE,67,0.0,0.0,33,-99.99,,,-99.99,tws,2013-06-08 13:50:00,
2013-06-08 07:00:00,74.0,43.7,29.86,NE,45,0.8,1.9,33,-99.99,,,-99.99,tws,2013-06-08 14:00:00,
2013-06-08 07:10:00,74.8,43.9,29.86,South,180,1.0,2.1,32,-99.99,,,-99.99,tws,2013-06-08 14:10:00,
2013-06-08 07:20:00,75.5,43.5,29.86,SE,135,0.0,0.0,31,-99.99,,,-99.99,tws,2013-06-08 14:20:00,
2013-06-08 07:30:00,76.0,42.4,29.87,SE,135,0.0,0.0,29,-99.99,,,-99.99,tws,2013-06-08 14:30:00,
2013-06-08 07:40:00,76.6,41.2,29.87,SE,135,0.0,0.0,27,-99.99,,,-99.99,tws,2013-06-08 14:40:00,
2013-06-08 07:50:00,77.5,41.1,29.89,East,90,0.0,0.0,26,-99.99,,,-99.99,tws,2013-06-08 14:50:00,
2013-06-08 08:00:00,78.5,41.4,29.89,South,180,0.6,1.7,26,-99.99,,,-99.99,tws,2013-06-08 15:00:00,
2013-06-08 08:10:00,79.8,40.8,29.89,SSE,157,2.3,2.7,24,-99.99,,,-99.99,tws,2013-06-08 15:10:00,
2013-06-08 08:20:00,81.2,40.5,29.88,SSE,157,2.6,3.5,23,-99.99,,,-99.99,tws,2013-06-08 15:20:00,
2013-06-08 08:30:00,82.7,38.9,29.89,South,180,3.4,4.4,20,-99.99,,,-99.99,tws,2013-06-08 15:30:00,
2013-06-08 08:40:00,84.0,38.3,29.88,South,180,2.7,4.0,19,-99.99,,,-99.99,tws,2013-06-08 15:40:00,
2013-06-08 08:50:00,85.1,38.1,29.89,SW,225,3.5,5.9,18,-99.99,,,-99.99,tws,2013-06-08 15:50:00,
2013-06-08 09:00:00,85.9,37.9,29.89,West,270,4.5,5.0,17,-99.99,,,-99.99,tws,2013-06-08 16:00:00,
2013-06-08 09:10:00,86.7,38.5,29.89,SW,225,3.9,5.2,17,-99.99,,,-99.99,tws,2013-06-08 16:10:00,
2013-06-08 09:20:00,87.3,38.0,29.90,South,180,4.8,5.8,17,-99.99,,,-99.99,tws,2013-06-08 16:20:00,
2013-06-08 09:30:00,88.1,38.6,29.91,SE,135,4.6,6.3,17,-99.99,,,-99.99,tws,2013-06-08 16:30:00,
2013-06-08 09:40:00,88.8,38.3,29.90,SSE,157,3.4,5.0,16,-99.99,,,-99.99,tws,2013-06-08 16:40:00,
2013-06-08 09:50:00,89.3,37.9,29.91,SSE,157,4.8,7.7,15,-99.99,,,-99.99,tws,2013-06-08 16:50:00,
2013-06-08 10:00:00,89.7,38.4,29.91,SE,135,3.4,4.9,16,-99.99,,,-99.99,tws,2013-06-08 17:00:00,
2013-06-08 10:10:00,90.0,38.3,29.91,SSW,202,3.3,7.3,15,-99.99,,,-99.99,tws,2013-06-08 17:10:00,
2013-06-08 10:20:00,90.2,38.2,29.92,South,180,5.4,8.6,15,-99.99,,,-99.99,tws,2013-06-08 17:20:00,
2013-06-08 10:30:00,90.6,39.0,29.89,SW,225,3.5,6.1,16,-99.99,,,-99.99,tws,2013-06-08 17:30:00,
2013-06-08 10:40:00,91.0,39.1,29.90,SSE,157,3.7,7.2,15,-99.99,,,-99.99,tws,2013-06-08 17:40:00,
2013-06-08 10:50:00,91.6,39.2,29.90,SE,135,4.1,6.5,15,-99.99,,,-99.99,tws,2013-06-08 17:50:00,
2013-06-08 11:00:00,92.2,37.6,29.89,SW,225,5.5,6.8,14,-99.99,,,-99.99,tws,2013-06-08 18:00:00,
2013-06-08 11:10:00,92.9,37.6,29.89,WSW,247,5.3,7.6,14,-99.99,,,-99.99,tws,2013-06-08 18:10:00,
2013-06-08 11:20:00,93.5,37.4,29.89,SW,225,4.8,7.5,13,-99.99,,,-99.99,tws,2013-06-08 18:20:00,
2013-06-08 11:30:00,94.0,37.0,29.89,ESE,112,5.2,7.6,13,-99.99,,,-99.99,tws,2013-06-08 18:30:00,
2013-06-08 11:40:00,94.6,38.7,29.89,West,270,4.6,7.8,13,-99.99,,,-99.99,tws,2013-06-08 18:40:00,
2013-06-08 11:50:00,95.0,39.1,29.89,SE,135,6.0,9.3,13,-99.99,,,-99.99,tws,2013-06-08 18:50:00,
2013-06-08 12:00:00,95.6,39.2,29.89,SSW,202,6.5,9.3,13,-99.99,,,-99.99,tws,2013-06-08 19:00:00,
2013-06-08 12:10:00,96.0,38.3,29.90,SE,135,5.2,8.4,13,-99.99,,,-99.99,tws,2013-06-08 19:10:00,
2013-06-08 12:20:00,96.3,38.4,29.89,South,180,7.0,12.0,13,-99.99,,,-99.99,tws,2013-06-08 19:20:00,
2013-06-08 12:30:00,96.5,38.8,29.89,SW,225,5.6,8.3,13,-99.99,,,-99.99,tws,2013-06-08 19:30:00,
2013-06-08 12:40:00,96.9,38.2,29.89,SSE,157,7.4,9.9,12,-99.99,,,-99.99,tws,2013-06-08 19:40:00,
2013-06-08 12:50:00,97.5,37.1,29.90,SSW,202,7.5,12.6,12,-99.99,,,-99.99,tws,2013-06-08 19:50:00,
2013-06-08 13:00:00,97.6,37.6,29.88,West,270,5.6,9.6,12,-99.99,,,-99.99,tws,2013-06-08 20:00:00,
2013-06-08 13:10:00,98.1,38.6,29.87,SE,135,7.4,10.8,12,-99.99,,,-99.99,tws,2013-06-08 20:10:00,
2013-06-08 13:20:00,98.6,37.6,29.87,SW,225,7.6,13.6,11,-99.99,,,-99.99,tws,2013-06-08 20:20:00,
2013-06-08 13:30:00,98.8,38.1,29.88,SW,225,7.7,11.9,11,-99.99,,,-99.99,tws,2013-06-08 20:30:00,
2013-06-08 13:40:00,99.0,37.1,29.87,SSW,202,10.4,14.0,11,-99.99,,,-99.99,tws,2013-06-08 20:40:00,
2013-06-08 13:50:00,99.4,37.7,29.87,SW,225,8.3,10.7,11,-99.99,,,-99.99,tws,2013-06-08 20:50:00,
2013-06-08 14:00:00,99.5,37.6,29.86,SW,225,9.0,13.0,11,-99.99,,,-99.99,tws,2013-06-08 21:00:00,
2013-06-08 14:10:00,99.6,38.4,29.85,SW,225,7.0,9.4,11,-99.99,,,-99.99,tws,2013-06-08 21:10:00,
2013-06-08 14:20:00,99.8,38.4,29.86,SW,225,9.9,14.2,11,-99.99,,,-99.99,tws,2013-06-08 21:20:00,
2013-06-08 14:30:00,99.9,37.8,29.86,SE,135,8.7,13.0,11,-99.99,,,-99.99,tws,2013-06-08 21:30:00,
2013-06-08 14:40:00,100.2,39.4,29.87,SW,225,6.4,10.8,12,-99.99,,,-99.99,tws,2013-06-08 21:40:00,
2013-06-08 14:50:00,100.6,39.4,29.85,South,180,9.3,13.4,11,-99.99,,,-99.99,tws,2013-06-08 21:50:00,
2013-06-08 15:00:00,100.8,39.4,29.85,SSE,157,8.9,11.4,11,-99.99,,,-99.99,tws,2013-06-08 22:00:00,
2013-06-08 15:10:00,101.0,40.7,29.84,North,360,7.6,16.5,12,-99.99,,,-99.99,tws,2013-06-08 22:10:00,
2013-06-08 15:20:00,101.3,39.3,29.84,SSE,157,8.5,11.1,11,-99.99,,,-99.99,tws,2013-06-08 22:20:00,
2013-06-08 15:30:00,101.9,39.9,29.83,South,180,7.8,12.4,11,-99.99,,,-99.99,tws,2013-06-08 22:30:00,
2013-06-08 15:40:00,102.3,39.7,29.84,SW,225,10.3,14.4,11,-99.99,,,-99.99,tws,2013-06-08 22:40:00,
2013-06-08 15:50:00,102.7,39.2,29.83,West,270,8.9,12.0,11,-99.99,,,-99.99,tws,2013-06-08 22:50:00,
2013-06-08 16:00:00,102.9,39.6,29.84,SW,225,7.8,13.0,11,-99.99,,,-99.99,tws,2013-06-08 23:00:00,
2013-06-08 16:10:00,102.6,38.8,29.83,South,180,9.6,13.7,10,-99.99,,,-99.99,tws,2013-06-08 23:10:00,
2013-06-08 16:20:00,102.2,38.8,29.81,SW,225,8.8,12.0,11,-99.99,,,-99.99,tws,2013-06-08 23:20:00,
2013-06-08 16:30:00,102.0,39.0,29.82,SW,225,8.1,11.1,11,-99.99,,,-99.99,tws,2013-06-08 23:30:00,
2013-06-08 16:40:00,101.7,38.3,29.82,SW,225,10.3,15.0,11,-99.99,,,-99.99,tws,2013-06-08 23:40:00,
2013-06-08 16:50:00,101.3,38.5,29.82,SSE,157,8.5,10.2,11,-99.99,,,-99.99,tws,2013-06-08 23:50:00,
2013-06-08 17:00:00,101.3,38.3,29.81,SW,225,8.2,10.7,11,-99.99,,,-99.99,tws,2013-06-09 00:00:00,
2013-06-08 17:10:00,101.4,38.1,29.81,SSW,202,8.2,10.1,11,-99.99,,,-99.99,tws,2013-06-09 00:10:00,
2013-06-08 17:20:00,101.4,38.3,29.82,SW,225,7.8,10.5,11,-99.99,,,-99.99,tws,2013-06-09 00:20:00,
2013-06-08 17:30:00,101.1,38.1,29.82,South,180,8.0,13.0,11,-99.99,,,-99.99,tws,2013-06-09 00:30:00,
2013-06-08 17:40:00,100.5,37.5,29.81,SSE,157,9.4,11.3,11,-99.99,,,-99.99,tws,2013-06-09 00:40:00,
2013-06-08 17:50:00,100.0,37.8,29.82,SW,225,9.5,11.6,11,-99.99,,,-99.99,tws,2013-06-09 00:50:00,
2013-06-08 18:00:00,99.5,37.3,29.81,SW,225,7.5,10.6,11,-99.99,,,-99.99,tws,2013-06-09 01:00:00,
2013-06-08 18:10:00,99.2,37.2,29.81,South,180,8.6,13.7,11,-99.99,,,-99.99,tws,2013-06-09 01:10:00,
2013-06-08 18:20:00,98.8,37.7,29.81,SE,135,8.4,10.0,11,-99.99,,,-99.99,tws,2013-06-09 01:20:00,
2013-06-08 18:30:00,98.5,37.6,29.81,South,180,9.0,11.9,11,-99.99,,,-99.99,tws,2013-06-09 01:30:00,
2013-06-08 18:40:00,98.1,37.6,29.82,South,180,6.4,8.1,11,-99.99,,,-99.99,tws,2013-06-09 01:40:00,
2013-06-08 18:50:00,97.7,37.6,29.82,SE,135,7.5,10.3,12,-99.99,,,-99.99,tws,2013-06-09 01:50:00,
2013-06-08 19:00:00,97.3,37.5,29.82,SSE,157,5.9,7.8,12,-99.99,,,-99.99,tws,2013-06-09 02:00:00,
2013-06-08 19:10:00,96.9,37.8,29.82,SSW,202,6.1,8.1,12,-99.99,,,-99.99,tws,2013-06-09 02:10:00,
2013-06-08 19:20:00,96.5,37.0,29.84,SW,225,6.1,7.6,12,-99.99,,,-99.99,tws,2013-06-09 02:20:00,
2013-06-08 19:30:00,96.0,36.5,29.84,South,180,4.6,6.6,12,-99.99,,,-99.99,tws,2013-06-09 02:30:00,
2013-06-08 19:40:00,95.5,36.9,29.84,South,180,3.5,4.2,12,-99.99,,,-99.99,tws,2013-06-09 02:40:00,
2013-06-08 19:50:00,94.8,37.0,29.85,SW,225,3.1,3.9,12,-99.99,,,-99.99,tws,2013-06-09 02:50:00,
2013-06-08 20:00:00,94.0,36.9,29.85,SSW,202,3.5,4.9,13,-99.99,,,-99.99,tws,2013-06-09 03:00:00,
2013-06-08 20:10:00,93.2,36.2,29.86,SW,225,4.1,4.6,13,-99.99,,,-99.99,tws,2013-06-09 03:10:00,
2013-06-08 20:20:00,92.6,36.0,29.86,SW,225,3.8,5.5,13,-99.99,,,-99.99,tws,2013-06-09 03:20:00,
2013-06-08 20:30:00,91.9,36.0,29.87,SW,225,5.3,7.8,13,-99.99,,,-99.99,tws,2013-06-09 03:30:00,
2013-06-08 20:40:00,91.5,35.7,29.89,West,270,6.0,6.8,13,-99.99,,,-99.99,tws,2013-06-09 03:40:00,
2013-06-08 20:50:00,91.4,35.6,29.89,South,180,4.6,5.8,13,-99.99,,,-99.99,tws,2013-06-09 03:50:00,
2013-06-08 21:00:00,91.2,35.6,29.89,West,270,3.6,4.3,13,-99.99,,,-99.99,tws,2013-06-09 04:00:00,
2013-06-08 21:10:00,90.5,37.0,29.90,NW,315,1.9,2.5,14,-99.99,,,-99.99,tws,2013-06-09 04:10:00,
2013-06-08 21:20:00,89.5,38.0,29.90,SW,225,1.8,2.8,15,-99.99,,,-99.99,tws,2013-06-09 04:20:00,
2013-06-08 21:30:00,88.5,38.6,29.90,NW,315,0.9,2.3,16,-99.99,,,-99.99,tws,2013-06-09 04:30:00,
2013-06-08 21:40:00,87.5,38.7,29.91,WNW,292,0.2,1.9,17,-99.99,,,-99.99,tws,2013-06-09 04:40:00,
2013-06-08 21:50:00,86.5,37.6,29.91,WSW,247,0.0,0.0,17,-99.99,,,-99.99,tws,2013-06-09 04:50:00,
2013-06-08 22:00:00,85.7,37.3,29.91,SE,135,0.0,0.0,17,-99.99,,,-99.99,tws,2013-06-09 05:00:00,
2013-06-08 22:10:00,85.1,37.5,29.91,ESE,112,0.0,0.0,18,-99.99,,,-99.99,tws,2013-06-09 05:10:00,
2013-06-08 22:20:00,84.6,38.8,29.91,SW,225,0.0,0.0,19,-99.99,,,-99.99,tws,2013-06-09 05:20:00,
2013-06-08 22:30:00,84.0,37.9,29.92,SW,225,2.4,4.8,19,-99.99,,,-99.99,tws,2013-06-09 05:30:00,
2013-06-08 22:40:00,84.1,37.9,29.92,SSW,202,4.7,5.4,19,-99.99,,,-99.99,tws,2013-06-09 05:40:00,
2013-06-08 22:50:00,84.6,39.2,29.92,South,180,3.0,4.1,19,-99.99,,,-99.99,tws,2013-06-09 05:50:00,
2013-06-08 23:00:00,84.7,39.9,29.92,South,180,2.7,3.2,20,-99.99,,,-99.99,tws,2013-06-09 06:00:00,
2013-06-08 23:10:00,84.4,39.9,29.93,SW,225,2.6,3.6,20,-99.99,,,-99.99,tws,2013-06-09 06:10:00,
2013-06-08 23:20:00,83.9,41.3,29.93,NW,315,1.3,2.1,21,-99.99,,,-99.99,tws,2013-06-09 06:20:00,
2013-06-08 23:30:00,83.1,41.6,29.93,West,270,1.6,2.3,22,-99.99,,,-99.99,tws,2013-06-09 06:30:00,
2013-06-08 23:40:00,82.2,41.9,29.92,NNW,337,0.8,1.7,23,-99.99,,,-99.99,tws,2013-06-09 06:40:00,
2013-06-08 23:50:00,81.5,42.1,29.92,NE,45,0.8,1.4,24,-99.99,,,-99.99,tws,2013-06-09 06:50:00,